Terug naar catalogus

SENTINEL-6B

ActiefWetenschapLEO
NORAD 66514·PAYLOAD·🇪🇺 EU

Gelanceerd Nov 17, 2025 vanaf Vandenberg Space Force Base

Loading…

Volgende Passages (komende 24 uur)

TLE

VersSource: CelesTrak SupGP

Epoch: Sep 14, 2026, 00:00 UTC

1 66514C 25264A   26257.00000000  .00000050  00000+0  21488-3 0  2570
2 66514  66.0420 310.7125 0007884 269.0134  24.9534 12.80929043    19

Volg SENTINEL-6B in realtime met AllMySat

Download on the App Store